Location: Chervonnoye
(48.6000°N, 34.4000°E)
Time: 12:55:08
(UTC+00:00)

deb Kosmos-2237 - Pass Details

Date: 21 June 2021
Orbit: 850 x 1045 km, 71.0° (Epoch: 25 July)

Event Time Altitude Azimuth Distance (km) Brightness Sun altitude
Rises 20:59:08 0° 270° (W) 3,636 ? -17.3°
Reaches altitude 10° 21:02:40 10° 290° (WNW) 2,732 ? -17.4°
Maximum altitude 21:06:42 17° 330° (NNW) 2,299 ? -17.5°
Drops below altitude 10° 21:10:50 10° 9° (N) 2,815 ? -17.6°
Sets 21:14:34 0° 29° (NNE) 3,795 ? -17.7°
